Location: Invercargill
(46.4000°S, 168.3500°E)
Time: 19:36:16
(UTC+12:00)

Okean O Rocket - Pass Details

Date: 14 May 2021
Orbit: 622 x 645 km, 98.2° (Epoch: 14 June)

Event Time Altitude Azimuth Distance (km) Brightness Sun altitude
Exits shadow 19:06:05 33° 102° (ESE) 1,098 2.3 -17.3°
Maximum altitude 19:06:43 35° 83° (E) 1,061 2.2 -17.4°
Drops below altitude 10° 19:10:50 10° 17° (NNE) 2,053 4.1 -18.1°
Sets 19:13:11 0° 7° (N) 2,955 5.1 -18.5°
